Location: Go�ngahuizen
(53.0821°N, 5.8849°E)
Time: 23:27:12
(UTC+00:00)

Cosmos 1766 Rocket - Pass Details

Date: 09 April 2020
Orbit: 604 x 634 km, 82.5° (Epoch: 03 June)

Event Time Altitude Azimuth Distance (km) Brightness Sun altitude
Rises 20:45:03 0° 350° (N) 2,945 7.9 -18.8°
Reaches altitude 10° 20:47:19 10° 354° (N) 2,029 6.9 -19.1°
Maximum altitude 20:51:48 66° 76° (ENE) 694 3.6 -19.5°
Enters shadow 20:52:54 47° 136° (SE) 834 3.7 -19.6°
